This demonstration page uses our WeatherBlox Daily Observations layout. Learn more.

Left ArrowRight Arrow

Hourly Observations for May 14, 2021

Temp ( °F °C ) Dew Point ( °F °C ) Humidity (%) Winds ( mph kmh ) Pressure ( in mb ) Visibility ( mi km ) Precip ( " mm )
12:53 am 00:53 Clear 71 21.7 51 10.6 49 49 SSE 18 30 30.01 1016 10 16 0.00 0.00
1:53 am 01:53 Clear 69 20.6 52 11.1 55 55 SSE 17 28 30.01 1016 10 16 0.00 0.00
2:53 am 02:53 Clear 67 19.4 53 11.7 61 61 SSE 20 31 29.99 1016 10 16 0.00 0.00
3:53 am 03:53 Clear 65 18.3 54 12.2 68 68 SSE 18 30 29.98 1015 10 16 0.00 0.00
4:53 am 04:53 Clear 64 17.8 55 12.8 73 73 SE 16 26 29.97 1015 10 16 0.00 0.00
5:53 am 05:53 Clear 63 17.2 55 12.8 76 76 SE 14 22 29.97 1015 10 16 0.00 0.00
6:53 am 06:53 Clear 62 16.7 55 12.8 78 78 SE 13 20 29.98 1015 10 16 0.00 0.00
7:53 am 07:53 Sunny 63 17.2 56 13.3 78 78 SE 15 24 29.99 1016 10 16 0.00 0.00
8:53 am 08:53 Sunny 66 18.9 56 13.3 70 70 SE 21 33 30.00 1016 10 16 0.00 0.00
9:53 am 09:53 Sunny 68 20 56 13.3 65 65 SSE 20 31 30.01 1016 10 16 0.00 0.00
10:53 am 10:53 undefined 73 22.8 56 13.3 55 55 undefined N/A 29.99 1016 10 16 0.00 0.00
11:53 am 11:53 Sunny 77 25 55 12.8 47 47 SE 16 26 29.97 1015 10 16 0.00 0.00
12:53 pm 12:53 Sunny 82 27.8 54 12.2 38 38 SE 14 22 29.96 1014 10 16 0.00 0.00
1:53 pm 13:53 Sunny 86 30 52 11.1 31 31 SE 16 26 29.93 1013 10 16 0.00 0.00
2:53 pm 14:53 Sunny 88 31.1 50 10 27 27 SE 15 24 29.89 1012 10 16 0.00 0.00
3:53 pm 15:53 Sunny 90 32.2 50 10 25 25 SE 16 26 29.86 1011 10 16 0.00 0.00
4:53 pm 16:53 Sunny 91 32.8 50 10 25 25 SE 17 28 29.82 1010 10 16 0.00 0.00
5:53 pm 17:53 Sunny 90 32.2 52 11.1 27 27 SSE 24 39 29.78 1009 10 16 0.00 0.00
6:53 pm 18:53 Sunny 86 30 52 11.1 31 31 SE 29 46 29.80 1009 10 16 0.00 0.00
7:53 pm 19:53 Sunny 81 27.2 52 11.1 37 37 SSE 28 44 29.81 1009 10 16 0.00 0.00
8:53 pm 20:53 Clear 77 25 54 12.2 45 45 SE 28 44 29.82 1010 10 16 0.00 0.00
9:53 pm 21:53 Clear 74 23.3 55 12.8 52 52 SE 26 43 29.85 1011 10 16 0.00 0.00
10:53 pm 22:53 Clear 73 22.8 57 13.9 57 57 SE 22 35 29.87 1012 10 16 0.00 0.00
11:53 pm 23:53 Mostly Clear 72 22.2 57 13.9 59 59 SSE 16 26 29.94 1014 10 16 0.00 0.00

Powered by AerisWeather